This is the latest recevied weather packets stored in our database for station/object KU9TRY. If no packets are shown the sender has not sent any weather packets the latest 10 day(s).
| Time | Temp. | Humidity | Pressure | Rain* | Wind** | Luminosity | Snow |
|---|---|---|---|---|---|---|---|
| 1777550248 | 11.11° C | 72% | 1016.2 hPa | 0 mm | - | 39 W/m² | - |
| 1777549945 | 11.11° C | 72% | 1016.2 hPa | 0 mm | - | 36 W/m² | - |
| 1777549641 | 10.56° C | 79% | 1016.1 hPa | 0 mm | - | 34 W/m² | - |
| 1777549336 | 10.56° C | 82% | 1016.1 hPa | 0 mm | - | 32 W/m² | - |
| 1777549035 | 10° C | 84% | 1016.1 hPa | 0 mm | - | 29 W/m² | - |
| 1777548730 | 10° C | 87% | 1016 hPa | 0 mm | - | 26 W/m² | - |
| 1777548428 | 10° C | 86% | 1015.9 hPa | 0 mm | - | 23 W/m² | - |
| 1777548124 | 10° C | 82% | 1016 hPa | 0 mm | - | 19 W/m² | - |
| 1777547820 | 9.44° C | 87% | 1015.8 hPa | 0 mm | - | 16 W/m² | - |
| 1777547516 | 9.44° C | 86% | 1015.8 hPa | 0 mm | - | 13 W/m² | - |
| 1777547214 | 9.44° C | 90% | 1015.7 hPa | 0 mm | - | 9 W/m² | - |
| 1777546911 | 8.89° C | 88% | 1015.7 hPa | 0 mm | - | 7 W/m² | - |
| 1777546608 | 8.89° C | 91% | 1015.8 hPa | 0 mm | - | 4 W/m² | - |
| 1777546304 | 9.44° C | 89% | 1015.7 hPa | 0 mm | - | 2 W/m² | - |
| 1777546002 | 10° C | 87% | 1015.7 hPa | 0 mm | - | 1 W/m² | - |
| 1777545698 | 10° C | 82% | 1015.6 hPa | 0 mm | - | 1 W/m² | - |
| 1777545395 | 10° C | 83% | 1015.5 hPa | 0 mm | - | 0 W/m² | - |
| 1777545092 | 10° C | 82% | 1015.3 hPa | 0 mm | - | 0 W/m² | - |
| 1777544789 | 10° C | 82% | 1015.4 hPa | 0 mm | - | 0 W/m² | - |
| 1777544485 | 10.56° C | 82% | 1015.6 hPa | 0 mm | - | 0 W/m² | - |
| 1777544181 | 10.56° C | 85% | 1015.5 hPa | 0 mm | - | 0 W/m² | - |
| 1777543879 | 10.56° C | 85% | 1015.5 hPa | 0 mm | - | 0 W/m² | - |
| 1777543575 | 10.56° C | 87% | 1015.7 hPa | 0 mm | - | 0 W/m² | - |
| 1777543271 | 10.56° C | 82% | 1015.6 hPa | 0 mm | - | 0 W/m² | - |
| 1777542967 | 11.11° C | 81% | 1015.6 hPa | 0 mm | - | 0 W/m² | - |
* Rain latest hour (hover to see other rain measurements)
** Current wind speed in m/s (hover to see current wind gust speed)